West Memphis, AR

7:43 AM CST on November 18, 2019 (GMT -0600)
West Memphis Municipal

Weather History for KAWM - August, 2019

Change the Weather History Date:

Tuesday, August 27, 2019

  Actual Average Record
Temperature  
Mean Temperature 80 °F -  
Max Temperature 88 °F 90 °F 99 °F (2007)
Min Temperature 72 °F 69 °F 56 °F (1968)
Cooling Degree Days 14    
Growing Degree Days 30 (Base 50)    
Moisture  
Dew Point 73 °F    
Average Humidity 84    
Maximum Humidity 100    
Minimum Humidity 61    
Precipitation  
Precipitation 0.00 in - - ()
Sea Level Pressure  
Sea Level Pressure 29.91 in    
Wind  
Wind Speed 5 mph (NNW)    
Max Wind Speed 13 mph    
Max Gust Speed 20 mph    
Visibility 10 miles    
Events Rain , Thunderstorm    
Averages and records for this station are not official NWS values.
T = Trace of Precipitation, MM = Missing Value Source: NWS Daily Summary

Daily Weather History Graph

Daily Weather History Graph

Search for Another Location

Airport or City:

Astronomy

Aug. 27, 2019 Rise Set
Actual Time 6:29 AM CDT 7:34 PM CDT
Civil Twilight 6:03 AM CDT 8:00 PM CDT
Nautical Twilight 5:32 AM CDT 8:31 PM CDT
Astronomical Twilight 5:00 AM CDT 9:03 PM CDT
Moon 3:02 AM CDT (8/27) 5:48 PM CDT (8/27)
Length of Visible Light 13h 57m
Length of Day
13h 05m
Waning Crescent, 11% of the Moon is Illuminated
Aug 27
Waning Crescent
Aug 30
New
Sep 5
First Quarter
Sep 13
Full
Sep 21
Last Quarter

Hourly Weather History & Observations

Time (CDT) Temp. Heat Index Dew Point Humidity Pressure Visibility Wind Dir Wind Speed Gust Speed Precip Events Conditions
12:53 AM 75.9 °F - 75.0 °F 97% 29.83 in 10.0 mi South 4.6 mph - N/A   Clear
1:53 AM 75.9 °F - 75.0 °F 97% 29.82 in 10.0 mi South 5.8 mph - N/A   Clear
2:53 AM 75.9 °F - 75.0 °F 97% 29.85 in 10.0 mi Calm Calm - N/A   Clear
3:53 AM 75.9 °F - 75.9 °F 100% 29.87 in 10.0 mi Calm Calm - N/A   Scattered Clouds
4:33 AM 75.9 °F - 73.9 °F 94% 29.93 in 10.0 mi NNW 12.7 mph 19.6 mph 0.00 in Rain , Thunderstorm Light Thunderstorms and Rain
4:53 AM 73.0 °F - 69.1 °F 87% 29.92 in 10.0 mi Variable 5.8 mph 17.3 mph 0.00 in   Overcast
5:07 AM 72.0 °F - 69.1 °F 91% 29.93 in 10.0 mi Variable 5.8 mph - N/A Thunderstorm Scattered Clouds
5:22 AM 72.0 °F - 69.1 °F 91% 29.92 in 10.0 mi Variable 3.5 mph - N/A   Clear
5:53 AM 72.0 °F - 70.0 °F 93% 29.88 in 10.0 mi ENE 5.8 mph - N/A   Mostly Cloudy
6:53 AM 72.0 °F - 70.0 °F 93% 29.88 in 10.0 mi SSW 5.8 mph - N/A   Partly Cloudy
7:53 AM 73.0 °F - 70.0 °F 90% 29.84 in 10.0 mi SSE 8.1 mph - N/A   Partly Cloudy
8:53 AM 73.9 °F - 71.1 °F 91% 29.85 in 10.0 mi SSE 5.8 mph - N/A   Scattered Clouds
9:53 AM 77.0 °F - 72.0 °F 84% 29.90 in 10.0 mi Variable 6.9 mph 17.3 mph N/A   Partly Cloudy
10:53 AM 82.0 °F 86.7 °F 72.0 °F 71% 29.90 in 10.0 mi NNW 5.8 mph - N/A   Clear
11:53 AM 82.9 °F 88.0 °F 72.0 °F 69% 29.91 in 10.0 mi North 8.1 mph - N/A   Clear
12:53 PM 86.0 °F 92.2 °F 72.0 °F 63% 29.92 in 10.0 mi Variable 6.9 mph - N/A   Clear
1:53 PM 87.1 °F 93.6 °F 72.0 °F 61% 29.92 in 10.0 mi NW 5.8 mph - N/A   Scattered Clouds
2:53 PM 86.0 °F 93.0 °F 73.0 °F 65% 29.91 in 10.0 mi NW 5.8 mph - N/A   Mostly Cloudy
3:53 PM 82.9 °F 89.4 °F 73.9 °F 74% 29.91 in 10.0 mi Variable 4.6 mph - N/A   Overcast
4:53 PM 82.9 °F 89.4 °F 73.9 °F 74% 29.91 in 10.0 mi Calm Calm - N/A   Overcast
5:02 PM 82.9 °F 89.4 °F 73.9 °F 74% 29.92 in 10.0 mi Calm Calm - N/A   Overcast
5:53 PM 82.0 °F 90.2 °F 77.0 °F 85% 29.92 in 10.0 mi Calm Calm - 0.00 in   Overcast
6:28 PM 82.9 °F 90.8 °F 75.9 °F 79% 29.93 in 10.0 mi Variable 4.6 mph - N/A   Overcast
6:53 PM 82.9 °F 90.8 °F 75.9 °F 79% 29.92 in 10.0 mi North 4.6 mph - N/A   Partly Cloudy
7:53 PM 80.1 °F 85.1 °F 75.0 °F 85% 29.93 in 10.0 mi North 5.8 mph - N/A   Clear
8:53 PM 79.0 °F - 75.0 °F 88% 29.96 in 10.0 mi North 3.5 mph - N/A   Clear
9:53 PM 77.0 °F - 75.0 °F 94% 29.99 in 10.0 mi Calm Calm - N/A   Clear
11:53 PM 73.9 °F - 73.0 °F 97% 29.98 in 10.0 mi Calm Calm - N/A   Clear